Home > Weather > Colchester County > Past weeks

Flag for Canada Weather for the Past 2 Weeks in Colchester County, Nova Scotia, Canada

Now
14 °F

Partly sunny.


Feels Like: -1 °F
Forecast: N/A
Wind: 15 mph from Northwest

Location: Halifax International Airport

Current Time: Feb 12, 2016 at 5:27:59 PM

Latest Report: Feb 12, 2016 at 5:00 PM


Visibility: 15 mi

Pressure: 29.98 "Hg

Humidity: 57%

Dew point: 1 °F

Location of Colchester CountyLocation

Historic Weather in Colchester County — Graph

°F

Colchester County Temperature Yesterday

Maximum temperature yesterday: 30 °F (at 3:00 PM)
Minimum temperature yesterday: 18 °F (at 8:00 AM)
Average temperature yesterday: 26 °F

High & Low Weather Summary for the Past Weeks

 TemperatureHumidityPressure
High50 °F (Feb 4, 8:00 AM)100% (Jan 29, 1:00 AM)30.54 "Hg (Jan 29, 1:00 AM)
Low14 °F (Feb 3, 6:00 AM)40% (Feb 2, 3:00 PM)29.01 "Hg (Jan 29, 5:00 PM)
Average29 °F88%29.84 "Hg
* Reported Jan 28 4:00 PM — Feb 12 4:00 PM, Colchester County, Weather by CustomWeather, © 2016

Note: Actual official high and low records may vary slightly from our data, if they occured in-between our weather recording intervals... More about our weather records

Advertising

Colchester County Weather History for the Previous 24 Hours

 ConditionsComfort  
Time TempWeatherWind HumidityBarometerVisibility
4:00 PM
Fri, Feb 12
14 °FPassing clouds.16 mph62%29.94 "Hg15 mi
3:00 PM16 °FScattered clouds.14 mph62%29.91 "Hg15 mi
2:00 PM16 °FPartly sunny.17 mph62%29.89 "Hg15 mi
1:00 PM14 °FPartly sunny.17 mph67%29.89 "Hg15 mi
12:00 PM14 °FPartly sunny.16 mph73%29.89 "Hg15 mi
11:00 AM16 °FSnow flurries. Partly sunny.18 mph67%29.88 "Hg10 mi
10:00 AM16 °FSnow flurries. Overcast.13 mph86%29.85 "Hg1 mi
9:45 AM16 °FSnow flurries. Overcast.14 mph79%29.85 "Hg1 mi
9:00 AM16 °FSnow flurries. Partly sunny.15 mph79%29.84 "Hg15 mi
8:00 AM16 °FSnow flurries. Partly sunny.15 mph86%29.80 "Hg10 mi
7:00 AM18 °FSnow flurries. Passing clouds.17 mph79%29.76 "Hg8 mi
6:00 AM18 °FSnow flurries. Overcast.15 mph93%29.72 "Hg15 mi
5:00 AM19 °FSnow flurries. Passing clouds.15 mph86%29.67 "Hg12 mi
4:00 AM19 °FSnow flurries. Passing clouds.14 mph93%29.65 "Hg15 mi
3:00 AM21 °FSnow flurries. Passing clouds.17 mph93%29.62 "Hg8 mi
2:00 AM21 °FSnow flurries. Partly cloudy.10 mph93%29.60 "Hg15 mi
1:00 AM23 °FSnow flurries. Mostly cloudy.14 mph86%29.58 "Hg15 mi
12:00 AM23 °FSnow flurries. Partly cloudy.14 mph93%29.57 "Hg15 mi
11:00 PM
Thu, Feb 11
25 °FPassing clouds.12 mph86%29.56 "Hg15 mi
10:00 PM27 °FPassing clouds.12 mph93%29.54 "Hg15 mi
9:00 PM27 °FPassing clouds.12 mph86%29.54 "Hg15 mi
8:00 PM28 °FSnow flurries. Passing clouds.8 mph100%29.54 "Hg15 mi
7:00 PM28 °FSnow flurries. Passing clouds.6 mph100%29.52 "Hg2 mi
6:00 PM28 °FSnow flurries. Low clouds.9 mph100%29.52 "Hg2 mi
5:00 PM30 °FMore clouds than sun.9 mph93%29.52 "Hg15 mi
Weather by CustomWeather, © 2016

See weather overviewHow to use our weather pages